Time,TemperatureF,DewpointF,PressureIn,WindDirection,WindDirectionDegrees,WindSpeedMPH,WindSpeedGustMPH,Humidity,HourlyPrecipIn,Conditions,Clouds,dailyrainin,SolarRadiationWatts/m^2,SoftwareType,DateUTC
2013-04-19 00:02:00,44.0,-1.0,-100.00,ENE,68,3.0,5.0,15,0.00,,,0.00,0.000000,,2013-04-19 07:02:00,
2013-04-19 00:12:00,44.0,-1.0,-100.00,ENE,68,3.0,5.0,15,0.00,,,0.00,0.000000,,2013-04-19 07:12:00,
2013-04-19 00:21:00,44.0,-1.0,-100.00,ENE,68,3.0,5.0,15,0.00,,,0.00,0.000000,,2013-04-19 07:21:00,
2013-04-19 00:52:00,44.0,9.0,-100.00,WNW,295,4.0,6.0,23,0.00,,,0.00,0.000000,,2013-04-19 07:52:00,
2013-04-19 01:02:00,44.0,9.0,-100.00,WNW,295,4.0,6.0,23,0.00,,,0.00,0.000000,,2013-04-19 08:02:00,
2013-04-19 01:12:00,44.0,9.0,-100.00,WNW,295,4.0,6.0,23,0.00,,,0.00,0.000000,,2013-04-19 08:12:00,
2013-04-19 01:21:00,44.0,9.0,-100.00,WNW,295,4.0,6.0,23,0.00,,,0.00,0.000000,,2013-04-19 08:21:00,
2013-04-19 01:52:00,43.0,5.0,-100.00,NNW,328,6.0,7.0,20,0.00,,,0.00,0.000000,,2013-04-19 08:52:00,
2013-04-19 02:01:00,43.0,5.0,-100.00,NNW,328,6.0,7.0,20,0.00,,,0.00,0.000000,,2013-04-19 09:01:00,
2013-04-19 02:11:00,43.0,5.0,-100.00,NNW,328,6.0,7.0,20,0.00,,,0.00,0.000000,,2013-04-19 09:11:00,
2013-04-19 02:21:00,43.0,5.0,-100.00,NNW,328,6.0,7.0,20,0.00,,,0.00,0.000000,,2013-04-19 09:21:00,
2013-04-19 02:52:00,45.0,3.0,-100.00,SW,232,1.0,8.0,17,0.00,,,0.00,0.000000,,2013-04-19 09:52:00,
2013-04-19 03:13:00,45.0,3.0,-100.00,SW,232,1.0,8.0,17,0.00,,,0.00,0.000000,,2013-04-19 10:13:00,
2013-04-19 03:23:00,45.0,3.0,-100.00,SW,232,1.0,8.0,17,0.00,,,0.00,0.000000,,2013-04-19 10:23:00,
2013-04-19 03:52:00,43.0,4.0,-100.00,NNE,21,3.0,8.0,19,0.00,,,0.00,0.000000,,2013-04-19 10:52:00,
2013-04-19 04:02:00,43.0,4.0,-100.00,NNE,21,3.0,8.0,19,0.00,,,0.00,0.000000,,2013-04-19 11:02:00,
2013-04-19 04:11:00,43.0,4.0,-100.00,NNE,21,3.0,8.0,19,0.00,,,0.00,0.000000,,2013-04-19 11:11:00,
2013-04-19 04:21:00,43.0,4.0,-100.00,NNE,21,3.0,8.0,19,0.00,,,0.00,0.000000,,2013-04-19 11:21:00,
2013-04-19 04:52:00,43.0,-1.0,-100.00,NNE,31,2.0,9.0,15,0.00,,,0.00,0.000000,,2013-04-19 11:52:00,
2013-04-19 05:02:00,43.0,-1.0,-100.00,NNE,31,2.0,9.0,15,0.00,,,0.00,0.000000,,2013-04-19 12:02:00,
2013-04-19 05:12:00,43.0,-1.0,-100.00,NNE,31,2.0,9.0,15,0.00,,,0.00,0.000000,,2013-04-19 12:12:00,
2013-04-19 05:22:00,43.0,-1.0,-100.00,NNE,31,2.0,9.0,15,0.00,,,0.00,0.000000,,2013-04-19 12:22:00,
2013-04-19 05:52:00,43.0,-1.0,-100.00,NE,34,1.0,10.0,15,-99.99,,,0.00,0.000000,,2013-04-19 12:52:00,
2013-04-19 06:01:00,43.0,-1.0,-100.00,NE,34,1.0,10.0,15,-99.99,,,0.00,0.000000,,2013-04-19 13:01:00,
2013-04-19 06:11:00,43.0,-1.0,-100.00,NE,34,1.0,10.0,15,-99.99,,,0.00,0.000000,,2013-04-19 13:11:00,
2013-04-19 06:21:00,43.0,-1.0,-100.00,NE,34,1.0,10.0,15,-99.99,,,0.00,0.000000,,2013-04-19 13:21:00,
2013-04-19 06:52:00,44.0,2.0,-100.00,SSW,200,0.0,5.0,17,0.00,,,0.00,2.000000,,2013-04-19 13:52:00,
2013-04-19 07:01:00,44.0,2.0,-100.00,SSW,200,0.0,5.0,17,0.00,,,0.00,2.000000,,2013-04-19 14:01:00,
2013-04-19 07:11:00,44.0,2.0,-100.00,SSW,200,0.0,5.0,17,0.00,,,0.00,2.000000,,2013-04-19 14:11:00,
2013-04-19 07:21:00,44.0,2.0,-100.00,SSW,200,0.0,5.0,17,0.00,,,0.00,2.000000,,2013-04-19 14:21:00,
2013-04-19 07:52:00,52.0,3.0,-100.00,SW,233,0.0,3.0,13,0.00,,,0.00,140.000000,,2013-04-19 14:52:00,
2013-04-19 08:52:00,57.0,3.0,-100.00,South,188,1.0,3.0,11,-99.99,,,0.00,416.000000,,2013-04-19 15:52:00,
2013-04-19 09:53:00,57.0,10.0,-100.00,South,169,2.0,5.0,15,-99.99,,,-99.99,688.000000,,2013-04-19 16:53:00,
2013-04-19 10:02:00,57.0,10.0,-100.00,South,169,2.0,5.0,15,-99.99,,,-99.99,688.000000,,2013-04-19 17:02:00,
2013-04-19 10:12:00,57.0,10.0,-100.00,South,169,2.0,5.0,15,-99.99,,,-99.99,688.000000,,2013-04-19 17:12:00,
2013-04-19 10:21:00,57.0,10.0,-100.00,South,169,2.0,5.0,15,-99.99,,,-99.99,688.000000,,2013-04-19 17:21:00,
2013-04-19 10:52:00,57.0,7.0,-100.00,ENE,60,4.0,8.0,13,0.00,,,0.00,926.000000,,2013-04-19 17:52:00,
2013-04-19 11:01:00,57.0,7.0,-100.00,ENE,60,4.0,8.0,13,0.00,,,0.00,926.000000,,2013-04-19 18:01:00,
2013-04-19 11:13:00,57.0,7.0,-100.00,ENE,60,4.0,8.0,13,0.00,,,0.00,926.000000,,2013-04-19 18:13:00,
2013-04-19 11:22:00,57.0,7.0,-100.00,ENE,60,4.0,8.0,13,0.00,,,0.00,926.000000,,2013-04-19 18:22:00,
2013-04-19 11:52:00,62.0,9.0,-100.00,WSW,249,3.0,8.0,12,0.00,,,0.00,1116.000000,,2013-04-19 18:52:00,
2013-04-19 12:01:00,62.0,9.0,-100.00,WSW,249,3.0,8.0,12,0.00,,,0.00,1116.000000,,2013-04-19 19:01:00,
2013-04-19 12:52:00,63.0,10.0,-100.00,SSW,206,4.0,11.0,12,-99.99,,,-99.99,1231.000000,,2013-04-19 19:52:00,
2013-04-19 13:01:00,63.0,10.0,-100.00,SSW,206,4.0,11.0,12,-99.99,,,-99.99,1231.000000,,2013-04-19 20:01:00,
2013-04-19 13:52:00,61.0,10.0,-100.00,WNW,291,9.0,18.0,13,0.00,,,0.00,1170.000000,,2013-04-19 20:52:00,
2013-04-19 14:01:00,61.0,10.0,-100.00,WNW,291,9.0,18.0,13,0.00,,,0.00,1170.000000,,2013-04-19 21:01:00,
2013-04-19 14:11:00,61.0,10.0,-100.00,WNW,291,9.0,18.0,13,0.00,,,0.00,1170.000000,,2013-04-19 21:11:00,
2013-04-19 14:21:00,61.0,10.0,-100.00,WNW,291,9.0,18.0,13,0.00,,,0.00,1170.000000,,2013-04-19 21:21:00,
2013-04-19 14:52:00,62.0,12.0,-100.00,WNW,294,9.0,19.0,14,0.00,,,0.00,1229.000000,,2013-04-19 21:52:00,
2013-04-19 15:02:00,62.0,12.0,-100.00,WNW,294,9.0,19.0,14,0.00,,,0.00,1229.000000,,2013-04-19 22:02:00,
2013-04-19 15:12:00,62.0,12.0,-100.00,WNW,294,9.0,19.0,14,0.00,,,0.00,1229.000000,,2013-04-19 22:12:00,
2013-04-19 15:22:00,62.0,12.0,-100.00,WNW,294,9.0,19.0,14,0.00,,,0.00,1229.000000,,2013-04-19 22:22:00,
2013-04-19 15:52:00,61.0,13.0,-100.00,WNW,290,12.0,23.0,15,0.00,,,0.00,963.000000,,2013-04-19 22:52:00,
2013-04-19 16:02:00,61.0,13.0,-100.00,WNW,290,12.0,23.0,15,0.00,,,0.00,963.000000,,2013-04-19 23:02:00,
2013-04-19 16:11:00,61.0,13.0,-100.00,WNW,290,12.0,23.0,15,0.00,,,0.00,963.000000,,2013-04-19 23:11:00,
2013-04-19 16:22:00,61.0,13.0,-100.00,WNW,290,12.0,23.0,15,0.00,,,0.00,963.000000,,2013-04-19 23:22:00,
2013-04-19 16:52:00,59.0,13.0,-100.00,West,279,20.0,30.0,16,0.00,,,-99.99,903.000000,,2013-04-19 23:52:00,
2013-04-19 17:01:00,59.0,13.0,-100.00,West,279,20.0,30.0,16,0.00,,,-99.99,903.000000,,2013-04-20 00:01:00,
2013-04-19 17:12:00,59.0,13.0,-100.00,West,279,20.0,30.0,16,0.00,,,-99.99,903.000000,,2013-04-20 00:12:00,
2013-04-19 17:21:00,59.0,13.0,-100.00,West,279,20.0,30.0,16,0.00,,,-99.99,903.000000,,2013-04-20 00:21:00,
2013-04-19 17:52:00,57.0,13.0,-100.00,West,281,22.0,33.0,17,0.00,,,0.00,649.000000,,2013-04-20 00:52:00,
2013-04-19 18:01:00,57.0,13.0,-100.00,West,281,22.0,33.0,17,0.00,,,0.00,649.000000,,2013-04-20 01:01:00,
2013-04-19 18:11:00,57.0,13.0,-100.00,West,281,22.0,33.0,17,0.00,,,0.00,649.000000,,2013-04-20 01:11:00,
2013-04-19 18:21:00,57.0,13.0,-100.00,West,281,22.0,33.0,17,0.00,,,0.00,649.000000,,2013-04-20 01:21:00,
2013-04-19 18:52:00,54.0,15.0,-100.00,WNW,283,25.0,40.0,21,0.00,,,0.00,374.000000,,2013-04-20 01:52:00,
2013-04-19 19:01:00,54.0,15.0,-100.00,WNW,283,25.0,40.0,21,0.00,,,0.00,374.000000,,2013-04-20 02:01:00,
2013-04-19 19:11:00,54.0,15.0,-100.00,WNW,283,25.0,40.0,21,0.00,,,0.00,374.000000,,2013-04-20 02:11:00,
2013-04-19 19:21:00,54.0,15.0,-100.00,WNW,283,25.0,40.0,21,0.00,,,0.00,374.000000,,2013-04-20 02:21:00,
2013-04-19 19:52:00,52.0,17.0,-100.00,West,275,19.0,37.0,25,0.00,,,0.00,102.000000,,2013-04-20 02:52:00,
2013-04-19 20:01:00,52.0,17.0,-100.00,West,275,19.0,37.0,25,0.00,,,0.00,102.000000,,2013-04-20 03:01:00,
2013-04-19 20:11:00,52.0,17.0,-100.00,West,275,19.0,37.0,25,0.00,,,0.00,102.000000,,2013-04-20 03:11:00,
2013-04-19 20:21:00,52.0,17.0,-100.00,West,275,19.0,37.0,25,0.00,,,0.00,102.000000,,2013-04-20 03:21:00,
2013-04-19 20:53:00,51.0,19.0,-100.00,West,272,20.0,40.0,28,0.00,,,0.00,1.000000,,2013-04-20 03:53:00,
2013-04-19 21:03:00,51.0,19.0,-100.00,West,272,20.0,40.0,28,0.00,,,0.00,1.000000,,2013-04-20 04:03:00,
2013-04-19 21:12:00,51.0,19.0,-100.00,West,272,20.0,40.0,28,0.00,,,0.00,1.000000,,2013-04-20 04:12:00,
2013-04-19 21:23:00,51.0,19.0,-100.00,West,272,20.0,40.0,28,0.00,,,0.00,1.000000,,2013-04-20 04:23:00,
2013-04-19 21:52:00,47.0,19.0,-100.00,West,281,13.0,40.0,33,0.00,,,0.00,0.000000,,2013-04-20 04:52:00,
2013-04-19 22:02:00,47.0,19.0,-100.00,West,281,13.0,40.0,33,0.00,,,0.00,0.000000,,2013-04-20 05:02:00,
2013-04-19 22:12:00,47.0,19.0,-100.00,West,281,13.0,40.0,33,0.00,,,0.00,0.000000,,2013-04-20 05:12:00,
2013-04-19 22:21:00,47.0,19.0,-100.00,West,281,13.0,40.0,33,0.00,,,0.00,0.000000,,2013-04-20 05:21:00,
2013-04-19 22:52:00,48.0,23.0,-100.00,WNW,298,14.0,32.0,37,0.00,,,0.00,0.000000,,2013-04-20 05:52:00,
2013-04-19 23:01:00,48.0,23.0,-100.00,WNW,298,14.0,32.0,37,0.00,,,0.00,0.000000,,2013-04-20 06:01:00,
2013-04-19 23:12:00,48.0,23.0,-100.00,WNW,298,14.0,32.0,37,0.00,,,0.00,0.000000,,2013-04-20 06:12:00,
2013-04-19 23:21:00,48.0,23.0,-100.00,WNW,298,14.0,32.0,37,0.00,,,0.00,0.000000,,2013-04-20 06:21:00,
2013-04-19 23:52:00,46.0,23.0,-100.00,NW,316,24.0,30.0,40,0.00,,,0.00,0.000000,,2013-04-20 06:52:00,